• In Moldova, Republic
  • List of Countries
  • For 7 days
  • Water Temperature
  • Satellite Maps
  • Weather Map
  • Weather Widgets
  • user-avatar
    Login

    Hourly Weather Konstantyna

    Today, 20 October, Friday

    Time Temperature Precipitation Wind Pressure Humidity
    00:00 +18°C° 0 mm 4 mps 708 mmHg 64%
    01:00 +17°C° 0.7 mm 3 mps 708 mmHg 67%
    02:00 +17°C° 0.7 mm 3 mps 708 mmHg 70%
    03:00 +16°C° 0.7 mm 2 mps 708 mmHg 73%
    04:00 +16°C° 0.8 mm 2 mps 708 mmHg 75%
    05:00 +16°C° 0.8 mm 2 mps 708 mmHg 77%
    06:00 +15°C° 0.8 mm 2 mps 708 mmHg 79%
    07:00 +16°C° 0.3 mm 2 mps 709 mmHg 79%
    08:00 +16°C° 0.3 mm 2 mps 709 mmHg 78%
    09:00 +16°C° 0.3 mm 3 mps 710 mmHg 78%
    10:00 +16°C° 0.5 mm 3 mps 710 mmHg 78%
    11:00 +16°C° 0.5 mm 3 mps 710 mmHg 78%
    12:00 +16°C° 0.5 mm 3 mps 710 mmHg 78%
    13:00 +16°C° 0.1 mm 3 mps 710 mmHg 78%
    14:00 +16°C° 0.1 mm 2 mps 710 mmHg 77%
    15:00 +16°C° 0.1 mm 2 mps 710 mmHg 77%
    16:00 +16°C° 0 mm 2 mps 711 mmHg 79%
    17:00 +16°C° 0 mm 2 mps 711 mmHg 80%
    18:00 +16°C° 0 mm 2 mps 712 mmHg 82%
    19:00 +15°C° 0.1 mm 2 mps 712 mmHg 84%
    20:00 +15°C° 0.1 mm 2 mps 712 mmHg 85%
    21:00 +15°C° 0.1 mm 1 mps 713 mmHg 87%
    22:00 +15°C° 0.1 mm 1 mps 713 mmHg 87%
    23:00 +15°C° 0.1 mm 1 mps 713 mmHg 87%

    Tomorrow, 21 October, Saturday

    Time Temperature Precipitation Wind Pressure Humidity
    00:00 +15°C° 0.1 mm 1 mps 713 mmHg 88%
    01:00 +15°C° 0 mm 1 mps 713 mmHg 89%
    02:00 +14°C° 0 mm 1 mps 713 mmHg 90%
    03:00 +14°C° 0 mm 1 mps 713 mmHg 91%
    04:00 +14°C° 0 mm 1 mps 713 mmHg 91%
    05:00 +14°C° 0 mm 1 mps 713 mmHg 90%
    06:00 +14°C° 0 mm 1 mps 713 mmHg 90%
    07:00 +15°C° 0 mm 1 mps 714 mmHg 84%
    08:00 +18°C° 0 mm 1 mps 714 mmHg 78%
    09:00 +19°C° 0 mm 1 mps 715 mmHg 73%
    10:00 +19°C° 0 mm 1 mps 715 mmHg 70%
    11:00 +19°C° 0 mm 2 mps 715 mmHg 67%
    12:00 +20°C° 0 mm 2 mps 715 mmHg 64%
    13:00 +20°C° 0 mm 2 mps 715 mmHg 63%
    14:00 +20°C° 0 mm 2 mps 714 mmHg 62%
    15:00 +21°C° 0 mm 2 mps 714 mmHg 61%
    16:00 +20°C° 0 mm 2 mps 714 mmHg 65%
    17:00 +20°C° 0 mm 1 mps 714 mmHg 69%
    18:00 +19°C° 0 mm 1 mps 714 mmHg 74%
    19:00 +19°C° 0 mm 1 mps 715 mmHg 77%
    20:00 +18°C° 0 mm 1 mps 715 mmHg 80%
    21:00 +18°C° 0 mm 1 mps 715 mmHg 83%
    22:00 +15°C° 0 mm 0 mps 715 mmHg 84%
    23:00 +15°C° 0 mm 0 mps 715 mmHg 85%

    Day after tomorrow, 22 October, Sunday

    Time Temperature Precipitation Wind Pressure Humidity
    00:00 +15°C° 0 mm 0 mps 715 mmHg 86%
    01:00 +15°C° 0 mm 0 mps 714 mmHg 86%
    02:00 +15°C° 0 mm 0 mps 714 mmHg 87%
    03:00 +14°C° 0 mm 0 mps 714 mmHg 87%
    04:00 +14°C° 0 mm 0 mps 714 mmHg 87%
    05:00 +14°C° 0 mm 0 mps 714 mmHg 87%
    06:00 +14°C° 0 mm 0 mps 714 mmHg 87%
    07:00 +18°C° 0 mm 1 mps 714 mmHg 79%
    08:00 +19°C° 0 mm 1 mps 715 mmHg 71%
    09:00 +21°C° 0 mm 1 mps 715 mmHg 63%
    10:00 +21°C° 0 mm 2 mps 715 mmHg 59%
    11:00 +23°C° 0 mm 2 mps 715 mmHg 55%
    12:00 +24°C° 0 mm 3 mps 715 mmHg 52%
    13:00 +22°C° 0 mm 3 mps 714 mmHg 52%
    14:00 +22°C° 0 mm 3 mps 714 mmHg 53%
    15:00 +22°C° 0 mm 3 mps 714 mmHg 53%
    16:00 +21°C° 0 mm 3 mps 714 mmHg 60%
    17:00 +20°C° 0 mm 3 mps 714 mmHg 67%
    18:00 +18°C° 0 mm 3 mps 714 mmHg 74%
    19:00 +18°C° 0.1 mm 2 mps 714 mmHg 78%
    20:00 +17°C° 0.1 mm 2 mps 715 mmHg 82%
    21:00 +18°C° 0.1 mm 1 mps 715 mmHg 85%
    22:00 +18°C° 0.1 mm 1 mps 715 mmHg 87%
    23:00 +16°C° 0.1 mm 1 mps 715 mmHg 88%

    23 October, Monday

    Time Temperature Precipitation Wind Pressure Humidity
    00:00 +16°C° 0.1 mm 1 mps 714 mmHg 89%
    01:00 +16°C° 0.2 mm 1 mps 714 mmHg 89%
    02:00 +16°C° 0.2 mm 1 mps 714 mmHg 89%
    03:00 +16°C° 0.2 mm 1 mps 714 mmHg 89%
    04:00 +16°C° 0.2 mm 1 mps 714 mmHg 90%
    05:00 +15°C° 0.2 mm 1 mps 714 mmHg 91%
    06:00 +15°C° 0.2 mm 1 mps 714 mmHg 92%
    07:00 +16°C° 0.1 mm 1 mps 714 mmHg 87%
    08:00 +16°C° 0.1 mm 2 mps 715 mmHg 83%
    09:00 +17°C° 0.1 mm 2 mps 715 mmHg 79%
    10:00 +18°C° 0.1 mm 2 mps 715 mmHg 73%
    11:00 +18°C° 0.1 mm 3 mps 715 mmHg 67%
    12:00 +19°C° 0.1 mm 4 mps 715 mmHg 62%
    13:00 +19°C° 0 mm 4 mps 715 mmHg 60%
    14:00 +19°C° 0 mm 4 mps 714 mmHg 59%
    15:00 +19°C° 0 mm 5 mps 714 mmHg 57%
    16:00 +18°C° 0 mm 4 mps 714 mmHg 63%
    17:00 +17°C° 0 mm 4 mps 714 mmHg 69%
    18:00 +16°C° 0 mm 3 mps 714 mmHg 74%
    19:00 +14°C° 0 mm 3 mps 715 mmHg 77%
    20:00 +15°C° 0 mm 2 mps 715 mmHg 79%
    21:00 +15°C° 0 mm 2 mps 715 mmHg 81%
    22:00 +14°C° 0 mm 2 mps 715 mmHg 83%
    23:00 +14°C° 0 mm 1 mps 715 mmHg 84%

    24 October, Tuesday

    Time Temperature Precipitation Wind Pressure Humidity
    00:00 +14°C° 0 mm 1 mps 714 mmHg 86%
    01:00 +13°C° 0 mm 1 mps 714 mmHg 87%
    02:00 +13°C° 0 mm 1 mps 714 mmHg 88%
    03:00 +13°C° 0 mm 1 mps 714 mmHg 89%
    04:00 +13°C° 0 mm 1 mps 714 mmHg 89%
    05:00 +12°C° 0 mm 1 mps 714 mmHg 89%
    06:00 +12°C° 0 mm 1 mps 714 mmHg 89%
    07:00 +14°C° 0 mm 1 mps 714 mmHg 80%
    08:00 +15°C° 0 mm 1 mps 715 mmHg 70%
    09:00 +17°C° 0 mm 2 mps 715 mmHg 61%
    10:00 +18°C° 0 mm 2 mps 715 mmHg 53%
    11:00 +20°C° 0 mm 2 mps 715 mmHg 46%
    12:00 +21°C° 0 mm 2 mps 714 mmHg 38%
    13:00 +21°C° 0 mm 3 mps 714 mmHg 37%
    14:00 +21°C° 0 mm 3 mps 714 mmHg 36%
    15:00 +22°C° 0 mm 3 mps 713 mmHg 34%
    16:00 +20°C° 0 mm 2 mps 713 mmHg 41%
    17:00 +19°C° 0 mm 2 mps 713 mmHg 47%
    18:00 +18°C° 0 mm 1 mps 713 mmHg 53%
    19:00 +18°C° 0 mm 1 mps 713 mmHg 56%
    20:00 +16°C° 0 mm 1 mps 713 mmHg 59%
    21:00 +16°C° 0 mm 1 mps 713 mmHg 62%
    22:00 +15°C° 0 mm 1 mps 713 mmHg 62%
    23:00 +15°C° 0 mm 1 mps 713 mmHg 62%

    25 October, Wednesday

    Time Temperature Precipitation Wind Pressure Humidity
    00:00 +15°C° 0 mm 1 mps 713 mmHg 63%
    01:00 +15°C° 0 mm 1 mps 713 mmHg 63%
    02:00 +14°C° 0 mm 1 mps 713 mmHg 63%
    03:00 +14°C° 0 mm 1 mps 712 mmHg 63%
    04:00 +14°C° 0 mm 1 mps 712 mmHg 63%
    05:00 +13°C° 0 mm 1 mps 713 mmHg 63%
    06:00 +13°C° 0 mm 1 mps 713 mmHg 63%
    07:00 +15°C° 0 mm 1 mps 713 mmHg 59%
    08:00 +18°C° 0 mm 1 mps 714 mmHg 54%
    09:00 +20°C° 0 mm 1 mps 714 mmHg 49%
    10:00 +21°C° 0 mm 1 mps 714 mmHg 48%
    11:00 +22°C° 0 mm 1 mps 714 mmHg 47%
    12:00 +23°C° 0 mm 2 mps 714 mmHg 46%
    13:00 +23°C° 0 mm 2 mps 714 mmHg 47%
    14:00 +23°C° 0 mm 2 mps 714 mmHg 48%
    15:00 +22°C° 0 mm 3 mps 714 mmHg 49%
    16:00 +21°C° 0 mm 2 mps 714 mmHg 56%
    17:00 +19°C° 0 mm 2 mps 714 mmHg 64%
    18:00 +18°C° 0 mm 2 mps 714 mmHg 71%
    19:00 +17°C° 0 mm 2 mps 715 mmHg 74%
    20:00 +17°C° 0 mm 2 mps 715 mmHg 77%
    21:00 +16°C° 0 mm 1 mps 715 mmHg 80%
    22:00 +16°C° 0 mm 1 mps 715 mmHg 79%
    23:00 +15°C° 0 mm 1 mps 715 mmHg 77%
    Show more